This page uses our WeatherBlox Daily Observations layout. Learn more.

Hourly Observations for May 16, 2018

Temp ( °F °C ) Dew Point ( °F °C ) Humidity (%) Winds ( mph kmh ) Pressure ( in mb ) Visibility ( mi km ) Precip ( " mm )
12:15 am 00:15 Partly Cloudy 64 18 64 18 100 100 Calm 30 1016 10 16.09344 0 0
12:35 am 00:35 Cloudy with Light Rain 64 18 64 18 100 100 Calm 30.03 1017 7 11.265408 0 0
12:55 am 00:55 Cloudy with Light Rain 64 18 64 18 100 100 Calm 30.03 1017 7 11.265408 0.01 0.254
1:15 am 01:15 Mostly Cloudy with Light Rain 63 17 63 17 100 100 Calm 30.03 1017 10 16.09344 0 0
1:35 am 01:35 Partly Cloudy with Light Rain 63 17 63 17 100 100 Calm 30.03 1017 10 16.09344 0 0
1:55 am 01:55 Partly Cloudy with Light Drizzle 63 17 63 17 100 100 SE 5 7 30 1016 10 16.09344 0.01 0.254
2:15 am 02:15 Mostly Cloudy with Light Rain 63 17 63 17 100 100 ESE 3 6 30 1016 10 16.09344 0 0
2:35 am 02:35 Mostly Cloudy 63 17 63 17 100 100 Calm 30 1016 10 16.09344 0 0
2:55 am 02:55 Mostly Cloudy 63 17 63 17 100 100 Calm 30 1016 10 16.09344 0 0
3:15 am 03:15 Cloudy 63 17 63 17 100 100 Calm 30 1016 10 16.09344 0 0
3:35 am 03:35 Cloudy with Light Rain 63 17 63 17 100 100 Calm 30 1016 10 16.09344 0 0
3:55 am 03:55 Cloudy 63 17 63 17 100 100 Calm 30 1016 10 16.09344 0 0
4:15 am 04:15 Cloudy 63 17 63 17 100 100 Calm 30 1016 10 16.09344 0 0
4:35 am 04:35 Cloudy 63 17 63 17 100 100 Calm 30 1016 10 16.09344 0 0
4:55 am 04:55 Cloudy 63 17 63 17 100 100 Calm 30 1016 7 11.265408 0 0
5:15 am 05:15 Cloudy 63 17 63 17 100 100 SSE 3 6 30 1016 10 16.09344 0 0
5:35 am 05:35 Cloudy 63 17 63 17 100 100 Calm 30 1016 10 16.09344 0 0
5:55 am 05:55 Cloudy with Light Rain 63 17 63 17 100 100 SE 3 6 30 1016 7 11.265408 0 0
6:15 am 06:15 Cloudy with Light Rain 63 17 63 17 100 100 SE 3 6 30 1016 7 11.265408 0 0
6:35 am 06:35 Cloudy with Light Drizzle 63 17 63 17 100 100 ESE 5 7 30 1016 7 11.265408 0 0
6:55 am 06:55 Cloudy with Light Rain 63 17 63 17 100 100 SE 6 9 30 1016 7 11.265408 0 0
7:15 am 07:15 Cloudy with Mist and Fog 63 17 63 17 100 100 SE 5 7 30 1016 5 8.04672 0 0
7:35 am 07:35 Cloudy with Mist and Fog 63 17 63 17 100 100 Calm 30.03 1017 5 8.04672 0 0
7:55 am 07:55 Cloudy 63 17 63 17 100 100 Calm 30.03 1017 7 11.265408 0 0
8:15 am 08:15 Cloudy 63 17 63 17 100 100 Calm 30.03 1017 7 11.265408 0 0
8:35 am 08:35 Cloudy 63 17 63 17 100 100 SSE 5 7 30.03 1017 10 16.09344 0 0
8:55 am 08:55 Cloudy 64 18 64 18 100 100 SSE 3 6 30.03 1017 10 16.09344 0 0
9:15 am 09:15 Cloudy 64 18 64 18 100 100 SSE 3 6 30.03 1017 10 16.09344 0 0
9:35 am 09:35 Cloudy 64 18 64 18 100 100 SSE 5 7 30.03 1017 10 16.09344 0 0
9:55 am 09:55 Cloudy 64 18 64 18 100 100 SSE 7 11 30.03 1017 10 16.09344 0 0
10:15 am 10:15 Cloudy 68 20 64 18 88 88 S 9 15 30.03 1017 10 16.09344 0 0
10:35 am 10:35 Cloudy 68 20 64 18 88 88 S 8 13 30.03 1017 10 16.09344 0 0
10:55 am 10:55 Cloudy 68 20 66 19 94 94 S 8 13 30.03 1017 10 16.09344 0 0
11:15 am 11:15 Cloudy 70 21 66 19 88 88 S 8 13 30.03 1017 10 16.09344 0 0
11:35 am 11:35 Mostly Cloudy 70 21 68 20 94 94 S 8 13 30.03 1017 10 16.09344 0 0
11:55 am 11:55 Mostly Cloudy 72 22 66 19 83 83 S 8 13 30.03 1017 10 16.09344 0 0
12:15 pm 12:15 Cloudy 72 22 68 20 88 88 S 7 11 30.03 1017 10 16.09344 0 0
12:35 pm 12:35 Cloudy 73 23 68 20 83 83 S 5 7 30.03 1017 10 16.09344 0 0
12:55 pm 12:55 Cloudy 73 23 68 20 83 83 S 7 11 30.03 1017 10 16.09344 0 0
1:15 pm 13:15 Cloudy with Light Rain 72 22 70 21 94 94 S 5 7 30 1016 10 16.09344 0 0
1:35 pm 13:35 Cloudy 73 23 68 20 83 83 SSE 5 7 30 1016 10 16.09344 0 0
1:55 pm 13:55 Cloudy 73 23 68 20 83 83 SE 7 11 30 1016 10 16.09344 0 0
2:15 pm 14:15 Cloudy 73 23 68 20 83 83 S 7 11 30 1016 10 16.09344 0 0
2:35 pm 14:35 Cloudy 73 23 68 20 83 83 SE 6 9 30 1016 10 16.09344 0 0
2:55 pm 14:55 Cloudy 73 23 68 20 83 83 SSE 8 13 30 1016 10 16.09344 0 0
3:15 pm 15:15 Cloudy with Light Rain 73 23 70 21 89 89 SSE 7 11 30 1016 10 16.09344 0 0
3:35 pm 15:35 Cloudy with Light Rain 73 23 70 21 89 89 SSE 6 9 30 1016 10 16.09344 0 0
3:55 pm 15:55 Cloudy with Light Drizzle 73 23 70 21 89 89 SE 6 9 29.97 1015 10 16.09344 0 0
4:15 pm 16:15 Cloudy 73 23 70 21 89 89 SSE 7 11 29.97 1015 10 16.09344 0 0
4:35 pm 16:35 Cloudy 73 23 70 21 89 89 SSE 6 9 29.97 1015 10 16.09344 0 0
4:55 pm 16:55 Cloudy 73 23 70 21 89 89 ESE 6 9 29.97 1015 10 16.09344 0 0
5:15 pm 17:15 Cloudy with Light Rain 72 22 70 21 94 94 SE 5 7 29.97 1015 10 16.09344 0 0
5:35 pm 17:35 Cloudy 72 22 70 21 94 94 SSE 5 7 29.97 1015 10 16.09344 0 0
5:55 pm 17:55 Cloudy 72 22 70 21 94 94 E 3 6 29.97 1015 10 16.09344 0 0
6:15 pm 18:15 Cloudy 72 22 70 21 94 94 E 6 9 29.97 1015 10 16.09344 0 0
6:35 pm 18:35 Cloudy 70 21 68 20 94 94 E 8 13 29.97 1015 10 16.09344 0 0
6:55 pm 18:55 Cloudy with Heavy Rain 68 20 68 20 100 100 ESE 10 17 29.97 1015 5 8.04672 0 0
7:15 pm 19:15 Cloudy with Rain 66 19 66 19 100 100 E 5 7 29.97 1015 5 8.04672 0 0
7:35 pm 19:35 Cloudy with Heavy Rain 66 19 66 19 100 100 E 5 7 29.97 1015 3 4.828032 0 0
7:55 pm 19:55 Cloudy with Light Rain 64 18 64 18 100 100 ESE 5 7 29.97 1015 7 11.265408 0 0
8:15 pm 20:15 Cloudy with Light Rain 64 18 64 18 100 100 E 7 11 29.97 1015 7 11.265408 0 0
8:35 pm 20:35 Cloudy with Light Drizzle 64 18 64 18 100 100 E 3 6 29.97 1015 10 16.09344 0 0
8:55 pm 20:55 Cloudy with Light Drizzle 64 18 64 18 100 100 E 5 7 29.97 1015 10 16.09344 0 0
9:15 pm 21:15 Cloudy with Rain 64 18 64 18 100 100 E 6 9 29.97 1015 10 16.09344 0 0
9:35 pm 21:35 Cloudy 64 18 64 18 100 100 E 7 11 30 1016 10 16.09344 0 0
9:55 pm 21:55 Cloudy 63 17 63 17 100 100 E 8 13 30 1016 10 16.09344 0 0
10:15 pm 22:15 Cloudy 63 17 63 17 100 100 E 5 7 30 1016 10 16.09344 0 0
10:35 pm 22:35 Cloudy with Light Rain 63 17 63 17 100 100 E 6 9 29.97 1015 7 11.265408 0 0
10:55 pm 22:55 Cloudy with Light Drizzle 63 17 63 17 100 100 ENE 5 7 29.97 1015 7 11.265408 0 0
11:15 pm 23:15 Cloudy with Light Drizzle 63 17 63 17 100 100 ENE 6 9 29.97 1015 5 8.04672 0 0
11:35 pm 23:35 Cloudy with Light Rain 61 16 61 16 100 100 E 5 7 29.97 1015 3 4.828032 0 0
11:55 pm 23:55 Cloudy with Mist and Fog 61 16 61 16 100 100 ENE 7 11 29.97 1015 5 8.04672 0 0